Westfield, MA

10:16 AM EST on January 17, 2018 (GMT -0500)
Barnes Municipal

Weather History for KBAF - November, 2011

Change the Weather History Date:

Friday, November 25, 2011

  Actual Average Record
Temperature  
Mean Temperature 44 °F -  
Max Temperature 62 °F 44 °F 63 °F (2004)
Min Temperature 25 °F 27 °F 9 °F (2000)
Degree Days  
Heating Degree Days 22    
Moisture  
Dew Point 31 °F    
Average Humidity 75    
Maximum Humidity 93    
Minimum Humidity 34    
Precipitation  
Precipitation 0.00 in - - ()
Sea Level Pressure  
Sea Level Pressure 30.10 in    
Wind  
Wind Speed 2 mph (SSW)    
Max Wind Speed 8 mph    
Max Gust Speed -    
Visibility 8 miles    
Events      
Averages and records for this station are not official NWS values.
T = Trace of Precipitation, MM = Missing Value Source: NWS Daily Summary

Daily Weather History Graph

Daily Weather History Graph

Search for Another Location

Airport or City:

Trip Planner

Search our weather history database for the weather conditions in past years. The results will help you decide how hot, cold, wet, or windy it might be!

Date:

Astronomy

Nov. 25, 2011 Rise Set
Actual Time 6:52 AM EST 4:22 PM EST
Civil Twilight 6:21 AM EST 4:53 PM EST
Nautical Twilight 5:47 AM EST 5:27 PM EST
Astronomical Twilight 5:14 AM EST 6:01 PM EST
Moon 7:18 AM EST (11/25) 4:46 PM EST (11/25)
Length of Visible Light 10h 31m
Length of Day
9h 29m
New Moon, 0% of the Moon is Illuminated
Nov 25
New Moon
Dec 2
First Quarter
Dec 10
Full
Dec 17
Last Quarter
Dec 24
New

Hourly Weather History & Observations

Time (EST) Temp. Windchill Dew Point Humidity Pressure Visibility Wind Dir Wind Speed Gust Speed Precip Events Conditions
12:33 AM 28.4 °F - 26.6 °F 93% 30.12 in 4.0 mi Calm Calm - N/A   Partly Cloudy
12:53 AM 27.0 °F - 25.0 °F 92% 30.14 in 3.0 mi Calm Calm - N/A   Clear
1:53 AM 28.0 °F - 25.0 °F 88% 30.14 in 6.0 mi Calm Calm - N/A   Clear
2:53 AM 28.0 °F - 25.0 °F 88% 30.14 in 8.0 mi Calm Calm - N/A   Clear
3:53 AM 27.0 °F - 25.0 °F 92% 30.13 in 10.0 mi Calm Calm - N/A   Clear
4:53 AM 27.0 °F - 24.1 °F 89% 30.13 in 8.0 mi Calm Calm - N/A   Clear
5:53 AM 26.1 °F - 24.1 °F 92% 30.13 in 7.0 mi Calm Calm - N/A   Clear
6:53 AM 25.0 °F - 23.0 °F 92% 30.14 in 8.0 mi Calm Calm - N/A   Clear
7:53 AM 30.0 °F 26.5 °F 28.0 °F 92% 30.14 in 8.0 mi SSW 3.5 mph - N/A   Clear
8:53 AM 37.9 °F 35.5 °F 34.0 °F 86% 30.13 in 10.0 mi South 3.5 mph - N/A   Clear
9:53 AM 45.0 °F 41.8 °F 36.0 °F 71% 30.12 in 10.0 mi South 5.8 mph - N/A   Clear
10:53 AM 51.1 °F - 36.0 °F 56% 30.10 in 10.0 mi South 6.9 mph - N/A   Clear
11:53 AM 55.9 °F - 37.0 °F 49% 30.07 in 10.0 mi South 8.1 mph - N/A   Clear
12:53 PM 57.9 °F - 37.0 °F 46% 30.06 in 10.0 mi SSE 5.8 mph - N/A   Clear
1:53 PM 61.0 °F - 36.0 °F 39% 30.05 in 10.0 mi Calm Calm - N/A   Clear
2:53 PM 62.1 °F - 33.1 °F 34% 30.05 in 10.0 mi West 6.9 mph - N/A   Clear
3:53 PM 59.0 °F - 34.0 °F 39% 30.05 in 10.0 mi SW 4.6 mph - N/A   Clear
4:53 PM 54.0 °F - 35.1 °F 49% 30.06 in 10.0 mi SW 5.8 mph - N/A   Clear
5:53 PM 46.0 °F 44.8 °F 37.0 °F 71% 30.07 in 10.0 mi South 3.5 mph - N/A   Clear
6:53 PM 45.0 °F - 36.0 °F 71% 30.07 in 10.0 mi Calm Calm - N/A   Clear
7:53 PM 37.9 °F - 35.1 °F 89% 30.07 in 10.0 mi Calm Calm - N/A   Clear
8:53 PM 36.0 °F - 34.0 °F 93% 30.07 in 10.0 mi Calm Calm - N/A   Clear
9:53 PM 35.1 °F - 33.1 °F 92% 30.09 in 8.0 mi Calm Calm - N/A   Clear
10:53 PM 34.0 °F - 32.0 °F 92% 30.08 in 7.0 mi Calm Calm - N/A   Clear
11:53 PM 32.0 °F - 30.0 °F 92% 30.09 in 1.2 mi Calm Calm - N/A   Clear